Home > Weather > Førde > Past weeks

Flag for Norway Past Weather in Førde, Norway — Yesterday and Last 2 Weeks

Now
54 °F

Sprinkles. Partly cloudy.


Feels Like: 51 °F
Forecast: 47 / 59 °F
Wind: 8 mph from Southeast

Location: Floro

Current Time: Jul 31, 2016 at 12:50:44 AM

Latest Report: Jul 31, 2016 at 12:20 AM


Visibility: N/A

Pressure: 29.68 "Hg

Humidity: 94%

Dew Point: 52 °F

Location of FørdeLocation

Past Weather in Førde — Graph

°F

Førde Temperature Yesterday

Maximum temperature yesterday: 59 °F (at 11:20 AM)
Minimum temperature yesterday: 54 °F (at 4:50 AM)
Average temperature yesterday: 56 °F

High & Low Weather Summary for the Past Weeks

 TemperatureHumidityPressure
High79 °F (Jul 21, 1:20 PM)100% (Jul 17, 8:20 AM)30.12 "Hg (Jul 17, 8:20 AM)
Low50 °F (Jul 16, 4:50 AM)39% (Jul 21, 2:20 PM)29.65 "Hg (Jul 30, 7:50 AM)
Average59 °F86%29.90 "Hg
* Reported Jul 15 11:20 PM — Jul 30 11:20 PM, Førde, Weather by CustomWeather, © 2016

Note: Actual official high and low records may vary slightly from our data, if they occured in-between our weather recording intervals... More about our weather records

Advertising

Førde Weather History for the Previous 24 Hours

Scroll right to see more
 ConditionsComfort  
Time TempWeatherWind HumidityBarometerVisibility
11:20 PM
Sat, Jul 30
54 °FMostly cloudy.8 mph88%29.68 "HgN/A
10:50 PM54 °FMostly cloudy.9 mph88%29.68 "HgN/A
10:20 PM55 °FSprinkles. Mostly cloudy.8 mph82%29.68 "HgN/A
9:50 PM55 °FSprinkles. Overcast.9 mph77%29.68 "HgN/A
9:20 PM57 °FOvercast.9 mph82%29.68 "HgN/A
8:50 PM57 °FMostly cloudy.8 mph82%29.68 "HgN/A
8:20 PM55 °FScattered showers. Scattered clouds.8 mph88%29.68 "HgN/A
7:50 PM57 °FScattered showers. Scattered clouds.7 mph82%29.68 "HgN/A
7:20 PM59 °FScattered showers. Scattered clouds.9 mph77%29.68 "HgN/A
6:50 PM57 °FSprinkles. Scattered clouds.12 mph82%29.68 "HgN/A
6:20 PM57 °FScattered showers. Scattered clouds.8 mph82%29.68 "HgN/A
5:50 PM59 °FScattered showers. Scattered clouds.14 mph72%29.68 "HgN/A
5:20 PM59 °FScattered showers. Scattered clouds.14 mph72%29.68 "HgN/A
4:50 PM59 °FScattered showers. Scattered clouds.15 mph72%29.68 "HgN/A
4:20 PM59 °FScattered showers. Scattered clouds.15 mph77%29.68 "HgN/A
3:50 PM59 °FScattered showers. Scattered clouds.12 mph77%29.68 "HgN/A
3:20 PM59 °FScattered showers. Scattered clouds.10 mph82%29.68 "HgN/A
2:50 PM59 °FBroken clouds.12 mph77%29.68 "HgN/A
2:20 PM59 °FBroken clouds.10 mph82%29.68 "HgN/A
1:50 PM54 °FLots of rain. Broken clouds.6 mph88%29.68 "Hg2 mi
1:20 PM55 °FSprinkles. Partly sunny.10 mph88%29.68 "HgN/A
12:50 PM55 °FLight rain. Mostly cloudy.14 mph82%29.68 "HgN/A
12:20 PM59 °FLight rain. Overcast.12 mph72%29.65 "HgN/A
11:50 AM57 °FMostly cloudy.9 mph82%29.65 "HgN/A
11:20 AM59 °FOvercast.9 mph77%29.65 "HgN/A
10:50 AM57 °FSprinkles. Overcast.10 mph77%29.65 "HgN/A
10:20 AM57 °FMostly cloudy.13 mph77%29.65 "HgN/A
9:50 AM57 °FMore clouds than sun.12 mph77%29.65 "HgN/A
9:20 AM57 °FBroken clouds.10 mph77%29.65 "HgN/A
8:50 AM55 °FBroken clouds.10 mph88%29.68 "HgN/A
8:20 AM55 °FBroken clouds.10 mph88%29.65 "HgN/A
7:50 AM55 °FMostly cloudy.12 mph82%29.65 "HgN/A
7:20 AM55 °FSprinkles. Mostly cloudy.12 mph88%29.68 "HgN/A
6:50 AM55 °FMostly cloudy.10 mph88%29.68 "HgN/A
6:20 AM54 °FLight rain. Broken clouds.8 mph94%29.68 "HgN/A
5:50 AM55 °FDrizzle. Overcast.9 mph88%29.68 "HgN/A
5:20 AM54 °FPartly cloudy.8 mph94%29.68 "HgN/A
4:50 AM54 °FMostly cloudy.9 mph94%29.68 "HgN/A
4:20 AM55 °FPassing clouds.9 mph88%29.68 "HgN/A
3:50 AM55 °FOvercast.9 mph94%29.68 "HgN/A
3:20 AM55 °FOvercast.8 mph88%29.68 "HgN/A
2:50 AM55 °FOvercast.8 mph94%29.68 "HgN/A
2:20 AM55 °FPassing clouds.8 mph88%29.68 "HgN/A
1:50 AM55 °FMostly cloudy.9 mph88%29.68 "HgN/A
1:20 AM55 °FMostly cloudy.9 mph88%29.68 "HgN/A
12:50 AM55 °FMostly cloudy.9 mph94%29.68 "HgN/A
12:20 AM55 °FOvercast.6 mph94%29.68 "HgN/A
Weather by CustomWeather, © 2016

See weather overviewHow to use our weather pages